Weather History for Sauk Centre, MN

Change the Weather History Date:

Thursday, March 13, 2014

  Actual Average (KGHW) Record (KGHW)
Temperature  
Mean Temperature 36 °F -  
Max Temperature 50 °F 34 °F 62 °F (2012)
Min Temperature 22 °F 16 °F -15 °F (1975)
Degree Days  
Heating Degree Days 29    
Moisture  
Dew Point 30 °F    
Average Humidity 80    
Maximum Humidity 97    
Minimum Humidity 57    
Precipitation  
Precipitation 0.00 in - - ()
Sea Level Pressure  
Sea Level Pressure 29.69 in    
Wind  
Wind Speed 9 mph (SSW)    
Max Wind Speed 17 mph    
Max Gust Speed 18 mph    
Visibility 9 miles    
Events      
Averages and records for this station are not official NWS values.
T = Trace of Precipitation, MM = Missing Value Source: NWS Daily Summary

Daily Weather History Graph

Daily Weather History Graph

Search for Another Location

Airport:

Trip Planner

Search our weather history database for the weather conditions in past years. The results will help you decide how hot, cold, wet, or windy it might be!

Date:

Astronomy

Mar. 13, 2014 Rise Set
Actual Time 7:36 AM CDT 7:23 PM CDT
Civil Twilight 7:06 AM CDT 7:52 PM CDT
Nautical Twilight 6:32 AM CDT 8:27 PM CDT
Astronomical Twilight 5:56 AM CDT 9:02 PM CDT
Moon 4:43 PM CDT (3/13) 5:50 AM CDT (3/13)
Length of Visible Light 12h 46m
Length of Day
11h 46m
Waxing Gibbous, 91% of the Moon is Illuminated
Mar 13
Waxing Gibbous
Mar 16
Full
Mar 23
Last Quarter
Mar 30
New
Apr 7
First Quarter

Hourly Weather History & Observations

Time (CDT) Temp. Windchill Dew Point Humidity Pressure Visibility Wind Dir Wind Speed Gust Speed Precip Events Conditions
12:12 AM 25.5 °F 15.5 °F 21.2 °F 84% 29.94 in 10.0 mi South 10.4 mph - N/A   Overcast
12:33 AM 25.5 °F 15.5 °F 21.6 °F 85% 29.93 in 10.0 mi South 10.4 mph - N/A   Overcast
12:52 AM 25.7 °F 15.7 °F 21.7 °F 85% 29.92 in 10.0 mi South 10.4 mph - N/A   Overcast
1:12 AM 25.7 °F 15.1 °F 22.1 °F 86% 29.91 in 10.0 mi South 11.5 mph - N/A   Overcast
1:33 AM 26.1 °F 16.8 °F 22.8 °F 88% 29.90 in 10.0 mi South 9.2 mph - N/A   Overcast
1:52 AM 26.2 °F 17.1 °F 23.4 °F 89% 29.89 in 10.0 mi South 9.2 mph - N/A   Overcast
2:12 AM 26.6 °F 16.2 °F 23.7 °F 89% 29.88 in 10.0 mi South 11.5 mph - N/A   Overcast
2:33 AM 26.1 °F 16.2 °F 23.4 °F 90% 29.87 in 10.0 mi South 10.4 mph - N/A   Mostly Cloudy
2:52 AM 25.5 °F 16.9 °F 23.0 °F 90% 29.86 in 10.0 mi South 8.1 mph - N/A   Scattered Clouds
3:12 AM 25.3 °F 16.7 °F 23.0 °F 91% 29.85 in 10.0 mi SSE 8.1 mph - N/A   Scattered Clouds
3:32 AM 25.3 °F 16.7 °F 23.0 °F 91% 29.85 in 10.0 mi South 8.1 mph - N/A   Scattered Clouds
3:52 AM 24.8 °F 16.1 °F 23.0 °F 93% 29.84 in 10.0 mi South 8.1 mph - N/A   Clear
4:12 AM 24.8 °F 16.1 °F 23.0 °F 93% 29.82 in 10.0 mi South 8.1 mph - N/A   Clear
4:32 AM 24.8 °F 16.9 °F 23.2 °F 94% 29.82 in 10.0 mi South 6.9 mph - N/A   Clear
4:52 AM 23.9 °F 18.0 °F 22.8 °F 96% 29.82 in 10.0 mi South 4.6 mph - N/A   Clear
5:12 AM 24.3 °F 18.4 °F 23.2 °F 96% 29.81 in 10.0 mi South 4.6 mph - N/A   Clear
5:32 AM 24.8 °F 15.3 °F 23.9 °F 96% 29.80 in 10.0 mi SSW 9.2 mph - N/A   Clear
5:52 AM 24.8 °F 16.1 °F 23.9 °F 96% 29.80 in 7.0 mi SSW 8.1 mph - N/A   Clear
6:12 AM 24.6 °F 17.7 °F 23.7 °F 96% 29.80 in 7.0 mi SSW 5.8 mph - N/A   Clear
6:32 AM 24.4 °F - 23.5 °F 96% 29.79 in 7.0 mi Calm Calm - N/A   Clear
6:52 AM 24.6 °F - 23.9 °F 97% 29.79 in 7.0 mi Calm Calm - N/A   Clear
7:12 AM 25.0 °F 20.7 °F 24.1 °F 96% 29.78 in 7.0 mi SW 3.5 mph - N/A   Clear
7:32 AM 25.2 °F 20.9 °F 24.4 °F 97% 29.78 in 5.0 mi SSW 3.5 mph - N/A   Clear
7:52 AM 22.8 °F - 22.1 °F 97% 29.77 in 4.0 mi Calm Calm - N/A   Clear
8:12 AM 23.0 °F 18.4 °F 22.3 °F 97% 29.78 in 4.0 mi SSW 3.5 mph - N/A   Clear
8:32 AM 24.6 °F 18.8 °F 23.9 °F 97% 29.77 in 5.0 mi SSW 4.6 mph - N/A   Clear
8:52 AM 26.1 °F 20.5 °F 25.0 °F 96% 29.77 in 7.0 mi SSW 4.6 mph - N/A   Clear
9:13 AM 29.1 °F 24.1 °F 27.0 °F 92% 29.76 in 10.0 mi SSW 4.6 mph - N/A   Clear
9:32 AM 31.1 °F 27.7 °F 28.0 °F 88% 29.76 in 10.0 mi SW 3.5 mph - N/A   Clear
9:52 AM 32.5 °F 27.1 °F 29.1 °F 87% 29.75 in 10.0 mi SW 5.8 mph - N/A   Clear
10:13 AM 34.7 °F 30.6 °F 30.2 °F 84% 29.74 in 10.0 mi SW 4.6 mph - N/A   Clear
10:32 AM 36.7 °F 31.2 °F 31.1 °F 80% 29.74 in 10.0 mi WSW 6.9 mph - N/A   Clear
10:52 AM 37.6 °F 31.0 °F 31.1 °F 77% 29.73 in 10.0 mi WSW 9.2 mph - N/A   Clear
11:13 AM 38.7 °F 33.6 °F 31.6 °F 76% 29.72 in 10.0 mi WSW 6.9 mph - N/A   Clear
11:32 AM 39.7 °F 33.7 °F 32.0 °F 74% 29.72 in 10.0 mi SW 9.2 mph - N/A   Clear
11:52 AM 40.5 °F 36.5 °F 32.2 °F 72% 29.71 in 10.0 mi SW 5.8 mph - N/A   Clear
12:12 PM 41.4 °F 36.8 °F 32.7 °F 71% 29.70 in 10.0 mi SW 6.9 mph - N/A   Clear
12:32 PM 42.8 °F 38.6 °F 33.4 °F 70% 29.69 in 10.0 mi SSW 6.9 mph - N/A   Clear
12:52 PM 43.2 °F 37.9 °F 34.7 °F 72% 29.68 in 10.0 mi SSW 9.2 mph - N/A   Clear
1:12 PM 44.2 °F 40.3 °F 34.7 °F 69% 29.68 in 10.0 mi SSW 6.9 mph - N/A   Clear
1:32 PM 45.0 °F 40.1 °F 34.7 °F 67% 29.67 in 10.0 mi South 9.2 mph - N/A   Clear
1:52 PM 45.9 °F 40.8 °F 35.2 °F 66% 29.66 in 10.0 mi SSW 10.4 mph - N/A   Clear
2:12 PM 46.4 °F 41.1 °F 35.2 °F 65% 29.65 in 10.0 mi SSW 11.5 mph - N/A   Clear
2:32 PM 47.3 °F - 36.5 °F 66% 29.63 in 10.0 mi SSW 10.4 mph - N/A   Clear
2:52 PM 48.2 °F - 37.4 °F 66% 29.62 in 10.0 mi SSW 11.5 mph - N/A   Clear
3:12 PM 49.3 °F - 37.8 °F 65% 29.61 in 10.0 mi SSW 12.7 mph - N/A   Clear
3:32 PM 50.4 °F - 37.4 °F 61% 29.60 in 10.0 mi SW 13.8 mph 18.4 mph N/A   Clear
3:52 PM 50.9 °F - 37.4 °F 60% 29.60 in 10.0 mi SW 17.3 mph - N/A   Clear
4:12 PM 50.2 °F - 37.6 °F 62% 29.58 in 10.0 mi SW 12.7 mph - N/A   Clear
4:32 PM 50.5 °F - 37.8 °F 62% 29.57 in 10.0 mi SSW 11.5 mph - N/A   Clear
4:53 PM 50.2 °F - 37.9 °F 63% 29.56 in 10.0 mi SSW 13.8 mph - N/A   Clear
5:12 PM 50.5 °F - 38.5 °F 63% 29.56 in 10.0 mi SW 10.4 mph - N/A   Clear
5:32 PM 50.2 °F - 35.6 °F 57% 29.55 in 10.0 mi SW 13.8 mph 18.4 mph N/A   Clear
5:53 PM 49.8 °F - 35.4 °F 58% 29.55 in 10.0 mi WSW 12.7 mph - N/A   Clear
6:12 PM 48.4 °F - 35.6 °F 61% 29.55 in 10.0 mi SW 12.7 mph - N/A   Clear
6:32 PM 47.7 °F - 35.6 °F 63% 29.54 in 10.0 mi SW 9.2 mph - N/A   Clear
6:53 PM 45.5 °F 40.8 °F 35.4 °F 68% 29.54 in 10.0 mi SW 9.2 mph - N/A   Clear
7:12 PM 43.9 °F 39.3 °F 35.2 °F 72% 29.54 in 10.0 mi SW 8.1 mph - N/A   Clear
7:32 PM 43.9 °F 38.3 °F 36.5 °F 75% 29.53 in 10.0 mi SSW 10.4 mph - N/A   Clear
7:53 PM 43.7 °F 38.6 °F 36.5 °F 76% 29.53 in 10.0 mi SSW 9.2 mph - N/A   Clear
8:12 PM 42.4 °F 37.0 °F 36.0 °F 78% 29.53 in 10.0 mi SW 9.2 mph - N/A   Clear
8:32 PM 41.7 °F 36.7 °F 36.0 °F 80% 29.53 in 10.0 mi SSW 8.1 mph - N/A   Clear
8:52 PM 40.3 °F 34.4 °F 35.6 °F 83% 29.52 in 10.0 mi SSW 9.2 mph - N/A   Clear
9:12 PM 41.0 °F 34.7 °F 35.6 °F 81% 29.52 in 10.0 mi SW 10.4 mph - N/A   Clear
9:32 PM 40.3 °F 34.9 °F 35.1 °F 82% 29.52 in 10.0 mi SW 8.1 mph - N/A   Clear
9:52 PM 38.8 °F 34.6 °F 34.2 °F 83% 29.52 in 10.0 mi WSW 5.8 mph - N/A   Clear
10:12 PM 39.2 °F 33.0 °F 34.3 °F 83% 29.52 in 10.0 mi WSW 9.2 mph - N/A   Clear
10:32 PM 39.0 °F 33.4 °F 33.6 °F 81% 29.52 in 10.0 mi West 8.1 mph - N/A   Clear
10:52 PM 38.7 °F 32.9 °F 33.1 °F 80% 29.52 in 10.0 mi West 8.1 mph - N/A   Clear
11:12 PM 38.5 °F 32.1 °F 32.9 °F 80% 29.52 in 10.0 mi West 9.2 mph - N/A   Clear
11:32 PM 38.5 °F 31.6 °F 32.7 °F 80% 29.52 in 10.0 mi West 10.4 mph - N/A   Clear
11:52 PM 38.8 °F 31.6 °F 32.9 °F 79% 29.52 in 10.0 mi West 11.5 mph - N/A   Clear